Weather History for Birmingham, United Kingdom

Change the Weather History Date:

Friday, September 28, 2012

  Actual Average Record
Temperature  
Mean Temperature 52 °F -  
Max Temperature 59 °F 57 °F 77 °F (2011)
Min Temperature 46 °F 43 °F 39 °F (2008)
Degree Days  
Heating Degree Days 12    
Growing Degree Days 2 (Base 50)    
Moisture  
Dew Point 48 °F    
Average Humidity 84    
Maximum Humidity 100    
Minimum Humidity 59    
Precipitation  
Precipitation 0.00 in 0.07 in - ()
Sea Level Pressure  
Sea Level Pressure 29.84 in    
Wind  
Wind Speed 9 mph ()    
Max Wind Speed 16 mph    
Max Gust Speed -    
Visibility 5.8 miles    
Events Rain    
Averages and records for this station are not official NWS values.
T = Trace of Precipitation, MM = Missing Value Source: Averaged Metar Reports

Daily Weather History Graph

Daily Weather History Graph

Search for Another Location

Airport:

Trip Planner

Search our weather history database for the weather conditions in past years. The results will help you decide how hot, cold, wet, or windy it might be!

Date:

Astronomy

Sep. 28, 2012 Rise Set
Actual Time 7:03 AM BST 6:50 PM BST
Civil Twilight 6:29 AM BST 7:24 PM BST
Nautical Twilight 5:49 AM BST 8:04 PM BST
Astronomical Twilight 5:08 AM BST 8:45 PM BST
Moon 5:48 PM BST 5:11 AM BST
Length of Visible Light 12h 54m
Length of Day
11h 46m
Waxing Gibbous, 97% of the Moon is Illuminated
Sep 28
Waxing Gibbous
Sep 30
Full
Oct 8
Last Quarter
Oct 15
New
Oct 22
First Quarter

Hourly Weather History & Observations

Time (BST) Temp. Windchill Dew Point Humidity Pressure Visibility Wind Dir Wind Speed Gust Speed Precip Events Conditions
12:20 AM 46.4 °F 42.9 °F 42.8 °F 87% 29.86 in - South 6.9 mph - N/A   Clear
12:50 AM 48.2 °F - 44.6 °F 87% 29.86 in - South 11.5 mph - N/A   Clear
1:20 AM 48.2 °F - 44.6 °F 87% 29.86 in 6.2 mi South 9.2 mph - N/A   Partly Cloudy
1:50 AM 48.2 °F - 44.6 °F 87% 29.86 in 6.2 mi South 9.2 mph - N/A   Mostly Cloudy
2:20 AM 46.4 °F 42.4 °F 42.8 °F 87% 29.86 in 6.2 mi SSE 8.1 mph - N/A   Mostly Cloudy
2:50 AM 46.4 °F 42.4 °F 44.6 °F 93% 29.86 in 6.2 mi SSE 8.1 mph - N/A   Unknown
3:20 AM 46.4 °F 42.9 °F 44.6 °F 93% 29.86 in - SSE 6.9 mph - N/A   Clear
3:50 AM 48.2 °F - 44.6 °F 87% 29.83 in - South 9.2 mph - N/A   Clear
4:20 AM 48.2 °F - 44.6 °F 87% 29.83 in - South 9.2 mph - N/A   Clear
4:50 AM 46.4 °F 41.9 °F 44.6 °F 93% 29.83 in - South 9.2 mph - N/A   Clear
5:20 AM 46.4 °F 42.4 °F 44.6 °F 93% 29.80 in 6.2 mi South 8.1 mph - N/A   Scattered Clouds
5:50 AM 46.4 °F 42.4 °F 46.4 °F 100% 29.80 in 6.2 mi SSE 8.1 mph - N/A   Mostly Cloudy
6:20 AM 48.2 °F - 48.2 °F 100% 29.80 in 6.2 mi South 9.2 mph - N/A   Scattered Clouds
6:50 AM 50.0 °F - 48.2 °F 94% 29.80 in 3.7 mi South 10.4 mph - N/A   Mostly Cloudy
7:20 AM 50.0 °F - 48.2 °F 94% 29.80 in 4.3 mi South 10.4 mph - N/A   Mostly Cloudy
7:50 AM 51.8 °F - 50.0 °F 94% 29.80 in 4.3 mi South 13.8 mph - N/A   Mostly Cloudy
8:20 AM 51.8 °F - 50.0 °F 94% 29.80 in 5.0 mi SSW 12.7 mph - N/A   Mostly Cloudy
8:50 AM 51.8 °F - 51.8 °F 100% 29.80 in 5.0 mi South 10.4 mph - N/A   Mostly Cloudy
9:20 AM 53.6 °F - 51.8 °F 94% 29.80 in 3.1 mi South 10.4 mph - N/A Rain Light Rain
9:50 AM 53.6 °F - 53.6 °F 100% 29.80 in - SSW 12.7 mph - N/A   Light Drizzle
10:20 AM 55.4 °F - 53.6 °F 94% 29.83 in 6.2 mi SW 10.4 mph - N/A   Scattered Clouds
10:50 AM 55.4 °F - 53.6 °F 94% 29.83 in 6.2 mi SW 11.5 mph - N/A   Mostly Cloudy
11:20 AM 57.2 °F - 53.6 °F 88% 29.83 in 6.2 mi SW 9.2 mph - N/A   Mostly Cloudy
11:50 AM 55.4 °F - 51.8 °F 88% 29.83 in 6.2 mi WSW 11.5 mph - N/A Rain Light Rain
12:20 PM 57.2 °F - 51.8 °F 82% 29.83 in 6.2 mi SW 12.7 mph - N/A   Scattered Clouds
12:50 PM 59.0 °F - 50.0 °F 72% 29.83 in 6.2 mi SW 15.0 mph - N/A   Scattered Clouds
1:20 PM 59.0 °F - 48.2 °F 67% 29.83 in 6.2 mi SW 13.8 mph - N/A   Scattered Clouds
1:50 PM 57.2 °F - 48.2 °F 72% 29.83 in 6.2 mi WSW 16.1 mph - N/A Rain Light Rain Showers
2:20 PM 57.2 °F - 50.0 °F 77% 29.83 in 6.2 mi SW 6.9 mph - N/A   Scattered Clouds
2:50 PM 59.0 °F - 50.0 °F 72% 29.83 in 6.2 mi SSW 10.4 mph - N/A   Scattered Clouds
3:20 PM 59.0 °F - 48.2 °F 67% 29.83 in 6.2 mi SW 13.8 mph - N/A   Scattered Clouds
3:50 PM 57.2 °F - 46.4 °F 67% 29.83 in 6.2 mi WSW 12.7 mph - N/A   Scattered Clouds
4:20 PM 59.0 °F - 44.6 °F 59% 29.83 in 6.2 mi West 15.0 mph - N/A   Scattered Clouds
4:50 PM 57.2 °F - 46.4 °F 67% 29.83 in 6.2 mi WSW 12.7 mph - N/A   Partly Cloudy
5:20 PM 57.2 °F - 46.4 °F 67% 29.83 in 6.2 mi WSW 10.4 mph - N/A   Partly Cloudy
5:50 PM 55.4 °F - 46.4 °F 72% 29.83 in 6.2 mi WSW 10.4 mph - N/A   Partly Cloudy
6:20 PM 55.4 °F - 46.4 °F 72% 29.86 in - SW 6.9 mph - N/A   Clear
6:50 PM 55.4 °F - 46.4 °F 72% 29.86 in - SW 6.9 mph - N/A   Clear
7:20 PM 53.6 °F - 46.4 °F 77% 29.86 in - SW 8.1 mph - N/A   Clear
7:50 PM 53.6 °F - 46.4 °F 77% 29.86 in - SW 8.1 mph - N/A   Clear
8:20 PM 51.8 °F - 46.4 °F 82% 29.86 in - SSW 5.8 mph - N/A   Clear
8:50 PM 51.8 °F - 46.4 °F 82% 29.89 in - SW 8.1 mph - N/A   Clear
9:20 PM 53.6 °F - 46.4 °F 77% 29.89 in - SW 9.2 mph - N/A   Clear
9:50 PM 51.8 °F - 46.4 °F 82% 29.89 in - SW 9.2 mph - N/A   Clear
10:20 PM 51.8 °F - 46.4 °F 82% 29.89 in - SW 8.1 mph - N/A   Clear
10:50 PM 51.8 °F - 46.4 °F 82% 29.89 in - WSW 9.2 mph - N/A   Clear
11:20 PM 50.0 °F - 46.4 °F 87% 29.89 in - WSW 8.1 mph - N/A   Clear
11:50 PM 50.0 °F - 46.4 °F 87% 29.89 in - WSW 6.9 mph - N/A   Clear